Covington, KY

9:06 AM EST on December 08, 2019 (GMT -0500)
Cincinnati-Northern KY International

Weather History for KCVG - October, 2019

Change the Weather History Date:

Thursday, October 10, 2019

  Actual Average Record
Temperature  
Mean Temperature 68 °F 58 °F  
Max Temperature 80 °F 68 °F 89 °F (1913)
Min Temperature 57 °F 47 °F 30 °F (1964)
Degree Days  
Heating Degree Days 0 8  
Month to date heating degree days 15 69  
Since 1 July heating degree days 15 127  
Cooling Degree Days 4 1  
Month to date cooling degree days 54 12  
Year to date cooling degree days 1496 1117  
Growing Degree Days 18 (Base 50)    
Moisture  
Dew Point 56 °F    
Average Humidity 68    
Maximum Humidity 93    
Minimum Humidity 43    
Precipitation  
Precipitation 0.00 in 0.11 in 1.24 in (1909)
Month to date precipitation 0.52 1.04  
Year to date precipitation 42.94 33.46  
Snow  
Snow 0.00 in 0.00 in - ()
Month to date snowfall 0.0 0.0  
Since 1 July snowfall 0.0 0.0  
Since 1 September snowfall 0.0 0.0  
Snow Depth 0.00 in    
Sea Level Pressure  
Sea Level Pressure 30.09 in    
Wind  
Wind Speed 5 mph ()    
Max Wind Speed 14 mph    
Max Gust Speed 16 mph    
Visibility 9.8 miles    
Events      
T = Trace of Precipitation, MM = Missing Value Source: Averaged Metar Reports

Daily Weather History Graph

Daily Weather History Graph

Search for Another Location

Airport or City:

Astronomy

Oct. 10, 2019 Rise Set
Actual Time 7:43 AM EDT 7:07 PM EDT
Civil Twilight 7:16 AM EDT 7:34 PM EDT
Nautical Twilight 6:45 AM EDT 8:05 PM EDT
Astronomical Twilight 6:14 AM EDT 8:36 PM EDT
Moon 6:06 PM EDT (10/10) 4:28 AM EDT (10/10)
Length of Visible Light 12h 18m
Length of Day
11h 24m
Waxing Gibbous, 91% of the Moon is Illuminated
Oct 10
Waxing Gibbous
Oct 13
Full
Oct 21
Last Quarter
Oct 27
New
Nov 4
First Quarter

Hourly Weather History & Observations

Time (EDT) Temp. Dew Point Humidity Pressure Visibility Wind Dir Wind Speed Gust Speed Precip Events Conditions
12:52 AM 57.9 °F 55.0 °F 90% 30.12 in 10.0 mi Calm Calm - N/A   Partly Cloudy
1:52 AM 59.0 °F 55.0 °F 87% 30.11 in 10.0 mi Calm Calm - N/A   Mostly Cloudy
2:52 AM 59.0 °F 55.0 °F 87% 30.11 in 10.0 mi East 4.6 mph - N/A   Mostly Cloudy
3:52 AM 57.9 °F 54.0 °F 87% 30.11 in 10.0 mi East 3.5 mph - N/A   Mostly Cloudy
4:52 AM 57.0 °F 54.0 °F 89% 30.11 in 10.0 mi East 3.5 mph - N/A   Overcast
5:52 AM 57.9 °F 55.0 °F 90% 30.12 in 10.0 mi East 4.6 mph - N/A   Mostly Cloudy
6:52 AM 57.9 °F 54.0 °F 87% 30.13 in 8.0 mi East 4.6 mph - N/A   Scattered Clouds
7:52 AM 57.0 °F 54.0 °F 89% 30.13 in 7.0 mi ESE 5.8 mph - N/A   Scattered Clouds
8:52 AM 60.1 °F 55.9 °F 86% 30.13 in 9.0 mi SE 9.2 mph - N/A   Partly Cloudy
9:52 AM 64.0 °F 57.9 °F 80% 30.15 in 10.0 mi ESE 5.8 mph - N/A   Mostly Cloudy
10:52 AM 69.1 °F 59.0 °F 70% 30.15 in 10.0 mi SE 6.9 mph - N/A   Mostly Cloudy
11:52 AM 73.0 °F 60.1 °F 64% 30.15 in 10.0 mi Variable 4.6 mph - N/A   Mostly Cloudy
12:52 PM 77.0 °F 60.1 °F 56% 30.13 in 10.0 mi South 6.9 mph - N/A   Mostly Cloudy
1:52 PM 79.0 °F 55.9 °F 45% 30.11 in 10.0 mi SSW 5.8 mph - N/A   Mostly Cloudy
2:52 PM 78.1 °F 57.0 °F 48% 30.09 in 10.0 mi South 8.1 mph - N/A   Overcast
3:52 PM 79.0 °F 57.0 °F 47% 30.07 in 10.0 mi SE 9.2 mph - N/A   Mostly Cloudy
4:52 PM 79.0 °F 55.9 °F 45% 30.05 in 10.0 mi SE 11.5 mph - N/A   Mostly Cloudy
5:52 PM 77.0 °F 54.0 °F 45% 30.05 in 10.0 mi SE 10.4 mph - N/A   Mostly Cloudy
6:52 PM 73.9 °F 55.0 °F 52% 30.04 in 10.0 mi ESE 6.9 mph - N/A   Overcast
7:52 PM 72.0 °F 55.9 °F 57% 30.04 in 10.0 mi ESE 6.9 mph - N/A   Overcast
8:52 PM 70.0 °F 54.0 °F 57% 30.04 in 10.0 mi SE 9.2 mph - N/A   Overcast
9:52 PM 71.1 °F 55.0 °F 57% 30.04 in 10.0 mi SE 11.5 mph - N/A   Overcast
10:52 PM 68.0 °F 55.0 °F 63% 30.05 in 10.0 mi SE 9.2 mph - N/A   Mostly Cloudy
11:52 PM 66.9 °F 55.0 °F 66% 30.05 in 10.0 mi SE 9.2 mph - N/A   Mostly Cloudy